Somerdale, OH (44678)

10:24 PM EST on February 08, 2016 (GMT -0500)
Fox Chase | | Change Station
CLOSE
Current Station
Personal Weather Station
Location: Dover, OH
Elevation: 994 ft
Nearby Weather Stations

Elev 994 ft 40.54 °N, 81.41 °W | Updated 2 minutes ago

Overcast
Overcast
30.6 °F
Feels Like 31 °F
N
0.0
Wind Variable Wind from SW

Today
High -- | Low -- °F
--% Chance of Precip.
Yesterday
High -- | Low -- °F
Precip. -- in
Pressure 29.61 in
Visibility 4.0 miles
Clouds Scattered Clouds 1700 ft
Overcast 4000 ft
Windchill 31 °F
Dew Point 30 °F
Humidity 99%
Rainfall 0.09 in
Snow Depth Not available.
7:28 AM 5:51 PM
New Moon, 0% visible
SPECI KPHD 090321Z AUTO 00000KT 4SM BR SCT017 OVC040 M01/M01 A2961 RMK AO2 T10061011
Pressure 29.61 in
Visibility 4.0 miles
Clouds Scattered Clouds 1700 ft
Overcast 4000 ft
Windchill 31 °F
Dew Point 30 °F
Humidity 99%
Rainfall 0.09 in
Snow Depth Not available.
7:28 AM 5:51 PM
New Moon, 0% visible
SPECI KPHD 090321Z AUTO 00000KT 4SM BR SCT017 OVC040 M01/M01 A2961 RMK AO2 T10061011

10-Day Weather Forecast

Almanac

Astronomy

Feb. 08, 2016 Rise Set
Actual Time
Civil Twilight
Nautical Twilight
Astronomical Twilight
Moon
Length of Visible Light
Length of Day
Tomorrow will be .
, % of the Moon is Illuminated

Today's Extremes

State Highs State Lows

Community

WunderPhotos

Upload Photos

1,891,527 photos uploaded!

WunderBlog® & News

Nearby

Air Quality

  Air Quality AQ Index Pollutant
Not available.

Snow Depth

Station Depth Elevation

Earthquake Activity

City Distance Mag. Time & Date
Minimum magnitude displayed is 2.5.

Coastal Water Temperatures

Place Temperature

Stations

Nearby Weather Stations

Station Location Temp. Windchill Dew Point Humidity Wind Precip. Elev Updated Type
                   

Watches & Warnings

There are currently no watches in effect.